Weather in Pereyaslavka

Russia / Khabarovsk Krai     47°58′07″N   135°03′11″E
temp.,
°C
wind,
m/s
gust,
m/s
humid.,
%
clouds,
%
prec.,
mm/h
press.,
hPa
HPBL,
m
5 august, thu
thu501:00+21ssw489395 0.4 1002133
04:00+18wsw359596 0.5 100398
07:00+19sw2293100 0.0 100455
10:00+22s238535 0.0 1004211
13:00+30ese135482 0.3 10021552
16:00+28n3363100 2.5 1001823
19:00+24ene4791100 1.6 1001205
22:00+20ene4897100 1.6 1001165
6 august, fri
fri601:00+19ne4797100 0.4 1001152
04:00+19ene2598100 1.9 1001137
07:00+19ne2498100 3.2 1002181
10:00+20s2599100 4.3 1002225
13:00+22sw3588100 0.4 1003502
16:00+26ssw4565100 0.6 10021204
19:00+24se348291 0.9 1002219
22:00+20ese339490 1.6 100350
7 august, sat
sat701:00+19ene359783 0.4 100397
04:00+19ne4699100 1.3 1004217
07:00+18ne4899100 1.3 1005268
10:00+18nne3599100 5.4 1007262
13:00+18nne3798100 3.4 1007298
16:00+18nne4997100 6.1 1008358
19:00+16ne51197100 1.8 1009459
22:00+15ne6129698 2.4 1011557
8 august, sun
sun801:00+14nne51096100 0.0 1011564
04:00+14nne51097100 0.1 1012560
07:00+13nne41096100 0.2 1013462
10:00+14nne51095100 0.3 1014488
13:00+14nne5991100 0.1 1015537
16:00+14nne6108899 0.1 1015470
19:00+14nne61085100 0.0 1015439
22:00+13nne5987100 0.0 1016369
9 august, mon
mon901:00+13nne4885100 0.0 1015353
04:00+13ne3782100 0.1 1015282
07:00+13ne3781100 0.1 1016274
10:00+16ne566840 0.1 1016632
13:00+20ene446081 0.0 10151194
16:00+19ene4462100 0.0 10151238
19:00+18ene456967 0.0 1015648
22:00+12ne35886 0.0 101691